Showing default

HJS-8A, 68687

Orbit data source: Space-Track

HJS-8A, 68687 is a payload satellite owned by Zhongguo Xingwang (CN) in LEO that was launched on Sat, 11 Apr 2026 UTC via a JIELONG-3 launch vehicle from the South China Sea Launch Area (SCSLA). Payload-class satellites include a variety of spacecraft equipped with specific instruments for various scientific and technological missions. These include communications satellites like Starlink; space stations such as the ISS; scientific satellites like the Hubble; Earth observation satellites from companies like Planet Labs, Umbra, and HawkEye 360; GPS; miniature CubeSats for education and research; and military/defense satellites.

Loading next visibility...
Identifier
68687, 2026-078A
Orbit
LEO
Country
Flag of CNCN / PRC
Related business
Manufacturer
Unknown (CN)
Mission
Operational spacecraft
Bus & Motor
Unknown
Mass
~300 kg wet, ~300 kg dry
Launch date (UTC)
2026-04-11 (2 months ago)
Launch vehicle
JIELONG-3
Launch site
South China Sea Launch Area (SCSLA)
Object type
Payload
Rocket body
Debris
Shape & HBR
Unknown shape, 14.5 m
Radar Cross Section
Large (>1 m²)

Expand to show TLE details & history
Last TLE update: 4 weeks ago

TLE from 4 weeks ago
0 HJS-8A
1 68687U 26078A   26141.97705468  .00000173  00000-0  28312-3 0  9998
2 68687  86.4931 291.3573 0002158 152.0869 208.0390 13.41533810  5494
Epoch: 2026-05-21T23:26Z
TLE epoch observation values (Epoch: 2026-05-21T23:26:57.524Z)
Latitude
-0.00011°
Longitude
60.00309°
Altitude
1,107.916 km
Speed
7.298 km/s
True Right ascension
19h 25m 25s
True Declination
0° 00' 00"
Sunlit
Object was in full shadow at epoch
Visualization orbit readout
Latitude
Unknown
Longitude
Unknown
Altitude
Unknown
Speed
Unknown
Apparent Right ascension
Unknown
Apparent Declination
Unknown
Sunlit
N/A
Visualization observer readout
Local Sidereal Time
12:40:11
Azimuth
Unknown
Elevation
Unknown
Doppler factor
Unknown
Orbital elements
Apogee altitude
1,102.28 km
Perigee altitude
1,099.052 km
Semi-major axis
7,478.803 km
Eccentricity
0.00022
Inclination
86.4931°
RAAN
291.3573°
Arg. of periapsis
152.0869°
True anomaly
208.02738°
Mean anomaly
208.039°
Eccentric anomaly
208.03319°
Mean motion
3.35579 °/min
Orbital period
107.28 mins
BSTAR
0.00028312
Loading maneuver chart data...
Computing Atmospheric mass density...
Loading historical data...
Loading historical data...
Loading historical data...
Loading historical data...
Loading historical data...
Loading historical data...
Loading historical data...
Other satellites on launch #78 in the year 2026 (2026-04-11 UTC)

Documentation

Showing up to 5 results
|